This is the latest recevied weather packets stored in our database for station/object KN6ZYR. If no packets are shown the sender has not sent any weather packets the latest 10 day(s).
| Time | Temp. | Humidity | Pressure | Rain* | Wind** | Luminosity | Snow |
|---|---|---|---|---|---|---|---|
| 1777871690 | 15° C | 42% | 1014.6 hPa | 0 mm | - | 0 W/m² | - |
| 1777871387 | 15° C | 42% | 1014.6 hPa | 0 mm | - | 0 W/m² | - |
| 1777871084 | 15° C | 42% | 1014.5 hPa | 0 mm | - | 0 W/m² | - |
| 1777870782 | 15° C | 41% | 1014.6 hPa | 0 mm | - | 0 W/m² | - |
| 1777870477 | 15° C | 41% | 1014.6 hPa | 0 mm | - | 0 W/m² | - |
| 1777870173 | 15° C | 41% | 1014.3 hPa | 0 mm | - | 0 W/m² | - |
| 1777869871 | 15.56° C | 41% | 1014.2 hPa | 0 mm | - | 0 W/m² | - |
| 1777869568 | 15.56° C | 41% | 1014.5 hPa | 0 mm | - | 0 W/m² | - |
| 1777869265 | 15.56° C | 41% | 1014.2 hPa | 0 mm | - | 0 W/m² | - |
| 1777868963 | 15.56° C | 41% | 1014.3 hPa | 0 mm | - | 0 W/m² | - |
| 1777868659 | 15.56° C | 41% | 1014.2 hPa | 0 mm | - | 0 W/m² | - |
| 1777868356 | 15.56° C | 41% | 1014.2 hPa | 0 mm | - | 0 W/m² | - |
| 1777868052 | 16.11° C | 40% | 1014.3 hPa | 0 mm | - | 0 W/m² | - |
| 1777867748 | 15.56° C | 40% | 1014.2 hPa | 0 mm | - | 0 W/m² | - |
| 1777867446 | 16.11° C | 40% | 1014.2 hPa | 0 mm | - | 0 W/m² | - |
| 1777867141 | 16.11° C | 39% | 1014.3 hPa | 0 mm | - | 0 W/m² | - |
| 1777866839 | 16.11° C | 39% | 1014.2 hPa | 0 mm | - | 0 W/m² | - |
| 1777866535 | 16.11° C | 39% | 1014.5 hPa | 0 mm | - | 0 W/m² | - |
| 1777866233 | 16.11° C | 39% | 1014.2 hPa | 0 mm | - | 0 W/m² | - |
| 1777865930 | 16.11° C | 39% | 1014 hPa | 0 mm | - | 0 W/m² | - |
| 1777865629 | 16.67° C | 37% | 1013.9 hPa | 0 mm | - | 0 W/m² | - |
| 1777865324 | 16.67° C | 37% | 1013.9 hPa | 0 mm | - | 0 W/m² | - |
| 1777865022 | 16.67° C | 37% | 1013.7 hPa | 0 mm | - | 0 W/m² | - |
| 1777864718 | 16.67° C | 36% | 1013.4 hPa | 0 mm | - | 0 W/m² | - |
| 1777864416 | 17.22° C | 35% | 1013.6 hPa | 0 mm | - | 0 W/m² | - |
* Rain latest hour (hover to see other rain measurements)
** Current wind speed in m/s (hover to see current wind gust speed)